Year,Month,Day,Hour,Minute,Value (Times are PST for temperature in C)
2016,06,03,00,00,12.80
2016,06,03,00,01,12.80
2016,06,03,00,02,12.70
2016,06,03,00,03,12.70
2016,06,03,00,04,12.70
2016,06,03,00,05,12.70
2016,06,03,00,06,12.70
2016,06,03,00,07,12.70
2016,06,03,00,08,12.70
2016,06,03,00,09,12.70
2016,06,03,00,10,12.60
2016,06,03,00,11,12.60
2016,06,03,00,12,12.60
2016,06,03,00,13,12.60
2016,06,03,00,14,12.60
2016,06,03,00,15,12.50
2016,06,03,00,16,12.50
2016,06,03,00,17,12.50
2016,06,03,00,18,12.50
2016,06,03,00,19,12.50
2016,06,03,00,20,12.40
2016,06,03,00,21,12.40
2016,06,03,00,22,12.40
2016,06,03,00,23,12.40
2016,06,03,00,24,12.40
2016,06,03,00,25,12.40
2016,06,03,00,26,12.40
2016,06,03,00,27,12.40
2016,06,03,00,28,12.40
2016,06,03,00,29,12.40
2016,06,03,00,30,12.40
2016,06,03,00,31,12.40
2016,06,03,00,32,12.40
2016,06,03,00,33,12.50
2016,06,03,00,34,12.50
2016,06,03,00,35,12.50
2016,06,03,00,36,12.50
2016,06,03,00,37,12.50
2016,06,03,00,38,12.60
2016,06,03,00,39,12.60
2016,06,03,00,40,12.60
2016,06,03,00,41,12.60
2016,06,03,00,42,12.60
2016,06,03,00,43,12.60
2016,06,03,00,44,12.60
2016,06,03,00,45,12.60
2016,06,03,00,46,12.60
2016,06,03,00,47,12.60
2016,06,03,00,48,12.70
2016,06,03,00,49,12.70
2016,06,03,00,50,12.70
2016,06,03,00,51,12.70
2016,06,03,00,52,12.70
2016,06,03,00,53,12.70
2016,06,03,00,54,12.70
2016,06,03,00,55,12.70
2016,06,03,00,56,12.70
2016,06,03,00,57,12.70
2016,06,03,00,58,12.70
2016,06,03,00,59,12.80
2016,06,03,01,00,12.80
2016,06,03,01,01,12.80
2016,06,03,01,02,12.80
2016,06,03,01,03,12.80
2016,06,03,01,04,12.80
2016,06,03,01,05,12.80
2016,06,03,01,06,12.80
2016,06,03,01,07,12.80
2016,06,03,01,08,12.80
2016,06,03,01,09,12.80
2016,06,03,01,10,12.80
2016,06,03,01,11,12.80
2016,06,03,01,12,12.80
2016,06,03,01,13,12.80
2016,06,03,01,14,12.80
2016,06,03,01,15,12.80
2016,06,03,01,16,12.90
2016,06,03,01,17,12.90
2016,06,03,01,18,12.90
2016,06,03,01,19,12.90
2016,06,03,01,20,12.90
2016,06,03,01,21,12.90
2016,06,03,01,22,12.90
2016,06,03,01,23,12.90
2016,06,03,01,24,12.90
2016,06,03,01,25,13.00
2016,06,03,01,26,13.00
2016,06,03,01,27,13.00
2016,06,03,01,28,13.00
2016,06,03,01,29,13.00
2016,06,03,01,30,13.00
2016,06,03,01,31,13.00
2016,06,03,01,32,13.10
2016,06,03,01,33,13.10
2016,06,03,01,34,13.10
2016,06,03,01,35,13.10
2016,06,03,01,36,13.10
2016,06,03,01,37,13.10
2016,06,03,01,38,13.10
2016,06,03,01,39,13.10
2016,06,03,01,40,13.10
2016,06,03,01,41,13.20
2016,06,03,01,42,13.20
2016,06,03,01,43,13.20
2016,06,03,01,44,13.20
2016,06,03,01,45,13.20
2016,06,03,01,46,13.20
2016,06,03,01,47,13.30
2016,06,03,01,48,13.30
2016,06,03,01,49,13.30
2016,06,03,01,50,13.30
2016,06,03,01,51,13.30
2016,06,03,01,52,13.30
2016,06,03,01,53,13.30
2016,06,03,01,54,13.40
2016,06,03,01,55,13.40
2016,06,03,01,56,13.40
2016,06,03,01,57,13.40
2016,06,03,01,58,13.40
2016,06,03,01,59,13.40
2016,06,03,02,00,13.40
2016,06,03,02,01,13.40
2016,06,03,02,02,13.40
2016,06,03,02,03,13.40
2016,06,03,02,04,13.50
2016,06,03,02,05,13.50
2016,06,03,02,06,13.50
2016,06,03,02,07,13.50
2016,06,03,02,08,13.50
2016,06,03,02,09,13.50
2016,06,03,02,10,13.50
2016,06,03,02,11,13.50
2016,06,03,02,12,13.50
2016,06,03,02,13,13.50
2016,06,03,02,14,13.50
2016,06,03,02,15,13.50
2016,06,03,02,16,13.50
2016,06,03,02,17,13.50
2016,06,03,02,18,13.50
2016,06,03,02,19,13.50
2016,06,03,02,20,13.50
2016,06,03,02,21,13.50
2016,06,03,02,22,13.50
2016,06,03,02,23,13.50
2016,06,03,02,24,13.50
2016,06,03,02,25,13.50
2016,06,03,02,26,13.50
2016,06,03,02,27,13.50
2016,06,03,02,28,13.50
2016,06,03,02,29,13.50
2016,06,03,02,30,13.50
2016,06,03,02,31,13.50
2016,06,03,02,32,13.50
2016,06,03,02,33,13.50
2016,06,03,02,34,13.50
2016,06,03,02,35,13.50
2016,06,03,02,36,13.50
2016,06,03,02,37,13.50
2016,06,03,02,38,13.40
2016,06,03,02,39,13.40
2016,06,03,02,40,13.40
2016,06,03,02,41,13.40
2016,06,03,02,42,13.40
2016,06,03,02,43,13.40
2016,06,03,02,44,13.40
2016,06,03,02,45,13.40
2016,06,03,02,46,13.40
2016,06,03,02,47,13.40
2016,06,03,02,48,13.40
2016,06,03,02,49,13.40
2016,06,03,02,50,13.40
2016,06,03,02,51,13.40
2016,06,03,02,52,13.40
2016,06,03,02,53,13.40
2016,06,03,02,54,13.40
2016,06,03,02,55,13.40
2016,06,03,02,56,13.40
2016,06,03,02,57,13.40
2016,06,03,02,58,13.40
2016,06,03,02,59,13.40
2016,06,03,03,00,13.50
2016,06,03,03,01,13.40
2016,06,03,03,02,13.40
2016,06,03,03,03,13.40
2016,06,03,03,04,13.40
2016,06,03,03,05,13.40
2016,06,03,03,06,13.40
2016,06,03,03,07,13.40
2016,06,03,03,08,13.40
2016,06,03,03,09,13.40
2016,06,03,03,10,13.40
2016,06,03,03,11,13.40
2016,06,03,03,12,13.40
2016,06,03,03,13,13.40
2016,06,03,03,14,13.40
2016,06,03,03,15,13.40
2016,06,03,03,16,13.40
2016,06,03,03,17,13.40
2016,06,03,03,18,13.40
2016,06,03,03,19,13.40
2016,06,03,03,20,13.40
2016,06,03,03,21,13.40
2016,06,03,03,22,13.40
2016,06,03,03,23,13.40
2016,06,03,03,24,13.40
2016,06,03,03,25,13.40
2016,06,03,03,26,13.40
2016,06,03,03,27,13.40
2016,06,03,03,28,13.40
2016,06,03,03,29,13.40
2016,06,03,03,30,13.40
2016,06,03,03,31,13.40
2016,06,03,03,32,13.40
2016,06,03,03,33,13.40
2016,06,03,03,34,13.40
2016,06,03,03,35,13.30
2016,06,03,03,36,13.30
2016,06,03,03,37,13.30
2016,06,03,03,38,13.30
2016,06,03,03,39,13.30
2016,06,03,03,40,13.30
2016,06,03,03,41,13.30
2016,06,03,03,42,13.30
2016,06,03,03,43,13.30
2016,06,03,03,44,13.30
2016,06,03,03,45,13.30
2016,06,03,03,46,13.30
2016,06,03,03,47,13.30
2016,06,03,03,48,13.30
2016,06,03,03,49,13.30
2016,06,03,03,50,13.30
2016,06,03,03,51,13.30
2016,06,03,03,52,13.30
2016,06,03,03,53,13.30
2016,06,03,03,54,13.30
2016,06,03,03,55,13.30
2016,06,03,03,56,13.30
2016,06,03,03,57,13.30
2016,06,03,03,58,13.30
2016,06,03,03,59,13.30
2016,06,03,04,00,13.30
2016,06,03,04,01,13.30
2016,06,03,04,02,13.30
2016,06,03,04,03,13.30
2016,06,03,04,04,13.30
2016,06,03,04,05,13.30
2016,06,03,04,06,13.30
2016,06,03,04,07,13.30
2016,06,03,04,08,13.30
2016,06,03,04,09,13.30
2016,06,03,04,10,13.30
2016,06,03,04,11,13.30
2016,06,03,04,12,13.30
2016,06,03,04,13,13.30
2016,06,03,04,14,13.30
2016,06,03,04,15,13.30
2016,06,03,04,16,13.30
2016,06,03,04,17,13.30
2016,06,03,04,18,13.30
2016,06,03,04,19,13.30
2016,06,03,04,20,13.30
2016,06,03,04,21,13.30
2016,06,03,04,22,13.20
2016,06,03,04,23,13.20
2016,06,03,04,24,13.20
2016,06,03,04,25,13.20
2016,06,03,04,26,13.20
2016,06,03,04,27,13.20
2016,06,03,04,28,13.20
2016,06,03,04,29,13.20
2016,06,03,04,30,13.20
2016,06,03,04,31,13.10
2016,06,03,04,32,13.10
2016,06,03,04,33,13.10
2016,06,03,04,34,13.10
2016,06,03,04,35,13.10
2016,06,03,04,36,13.00
2016,06,03,04,37,13.00
2016,06,03,04,38,13.00
2016,06,03,04,39,13.00
2016,06,03,04,40,12.90
2016,06,03,04,41,12.90
2016,06,03,04,42,12.90
2016,06,03,04,43,12.90
2016,06,03,04,44,12.90
2016,06,03,04,45,12.90
2016,06,03,04,46,12.90
2016,06,03,04,47,12.90
2016,06,03,04,48,12.80
2016,06,03,04,49,12.80
2016,06,03,04,50,12.80
2016,06,03,04,51,12.80
2016,06,03,04,52,12.80
2016,06,03,04,53,12.80
2016,06,03,04,54,12.80
2016,06,03,04,55,12.80
2016,06,03,04,56,12.80
2016,06,03,04,57,12.80
2016,06,03,04,58,12.80
2016,06,03,04,59,12.80
2016,06,03,05,00,12.80
2016,06,03,05,01,12.80
2016,06,03,05,02,12.80
2016,06,03,05,03,12.70
2016,06,03,05,04,12.70
2016,06,03,05,05,12.70
2016,06,03,05,06,12.70
2016,06,03,05,07,12.70
2016,06,03,05,08,12.70
2016,06,03,05,09,12.70
2016,06,03,05,10,12.70
2016,06,03,05,11,12.70
2016,06,03,05,12,12.60
2016,06,03,05,13,12.60
2016,06,03,05,14,12.60
2016,06,03,05,15,12.60
2016,06,03,05,16,12.60
2016,06,03,05,17,12.50
2016,06,03,05,18,12.50
2016,06,03,05,19,12.50
2016,06,03,05,20,12.50
2016,06,03,05,21,12.50
2016,06,03,05,22,12.40
2016,06,03,05,23,12.40
2016,06,03,05,24,12.40
2016,06,03,05,25,12.40
2016,06,03,05,26,12.40
2016,06,03,05,27,12.40
2016,06,03,05,28,12.40
2016,06,03,05,29,12.40
2016,06,03,05,30,12.40
2016,06,03,05,31,12.30
2016,06,03,05,32,12.40
2016,06,03,05,33,12.30
2016,06,03,05,34,12.30
2016,06,03,05,35,12.30
2016,06,03,05,36,12.30
2016,06,03,05,37,12.30
2016,06,03,05,38,12.30
2016,06,03,05,39,12.30
2016,06,03,05,40,12.30
2016,06,03,05,41,12.30
2016,06,03,05,42,12.30
2016,06,03,05,43,12.30
2016,06,03,05,44,12.30
2016,06,03,05,45,12.30
2016,06,03,05,46,12.30
2016,06,03,05,47,12.30
2016,06,03,05,48,12.30
2016,06,03,05,49,12.30
2016,06,03,05,50,12.30
2016,06,03,05,51,12.30
2016,06,03,05,52,12.30
2016,06,03,05,53,12.30
2016,06,03,05,54,12.30
2016,06,03,05,55,12.30
2016,06,03,05,56,12.20
2016,06,03,05,57,12.20
2016,06,03,05,58,12.20
2016,06,03,05,59,12.20
2016,06,03,06,00,12.20
2016,06,03,06,01,12.20
2016,06,03,06,02,12.10
2016,06,03,06,03,12.10
2016,06,03,06,04,12.10
2016,06,03,06,05,12.10
2016,06,03,06,06,12.10
2016,06,03,06,07,12.10
2016,06,03,06,08,12.10
2016,06,03,06,09,12.10
2016,06,03,06,10,12.10
2016,06,03,06,11,12.10
2016,06,03,06,12,12.10
2016,06,03,06,13,12.10
2016,06,03,06,14,12.10
2016,06,03,06,15,12.10
2016,06,03,06,16,12.10
2016,06,03,06,17,12.10
2016,06,03,06,18,12.10
2016,06,03,06,19,12.10
2016,06,03,06,20,12.10
2016,06,03,06,21,12.10
2016,06,03,06,22,12.10
2016,06,03,06,23,12.10
2016,06,03,06,24,12.10
2016,06,03,06,25,12.10
2016,06,03,06,26,12.10
2016,06,03,06,27,12.10
2016,06,03,06,28,12.10
2016,06,03,06,29,12.10
2016,06,03,06,30,12.10
2016,06,03,06,31,12.10
2016,06,03,06,32,12.10
2016,06,03,06,33,12.10
2016,06,03,06,34,12.10
2016,06,03,06,35,12.20
2016,06,03,06,36,12.20
2016,06,03,06,37,12.20
2016,06,03,06,38,12.20
2016,06,03,06,39,12.20
2016,06,03,06,40,12.20
2016,06,03,06,41,12.20
2016,06,03,06,42,12.20
2016,06,03,06,43,12.20
2016,06,03,06,44,12.30
2016,06,03,06,45,12.30
2016,06,03,06,46,12.30
2016,06,03,06,47,12.30
2016,06,03,06,48,12.30
2016,06,03,06,49,12.30
2016,06,03,06,50,12.30
2016,06,03,06,51,12.40
2016,06,03,06,52,12.40
2016,06,03,06,53,12.40
2016,06,03,06,54,12.40
2016,06,03,06,55,12.50
2016,06,03,06,56,12.50
2016,06,03,06,57,12.50
2016,06,03,06,58,12.60
2016,06,03,06,59,12.60
2016,06,03,07,00,12.60
2016,06,03,07,01,12.60
2016,06,03,07,02,12.70
2016,06,03,07,03,12.70
2016,06,03,07,04,12.70
2016,06,03,07,05,12.70
2016,06,03,07,06,12.80
2016,06,03,07,07,12.80
2016,06,03,07,08,12.80
2016,06,03,07,09,12.90
2016,06,03,07,10,12.90
2016,06,03,07,11,13.00
2016,06,03,07,12,13.00
2016,06,03,07,13,13.00
2016,06,03,07,14,13.10
2016,06,03,07,15,13.10
2016,06,03,07,16,13.20
2016,06,03,07,17,13.20
2016,06,03,07,18,13.20
2016,06,03,07,19,13.30
2016,06,03,07,20,13.30
2016,06,03,07,21,13.30
2016,06,03,07,22,13.30
2016,06,03,07,23,13.40
2016,06,03,07,24,13.40
2016,06,03,07,25,13.40
2016,06,03,07,26,13.50
2016,06,03,07,27,13.50
2016,06,03,07,28,13.60
2016,06,03,07,29,13.60
2016,06,03,07,30,13.60
2016,06,03,07,31,13.70
2016,06,03,07,32,13.70
2016,06,03,07,33,13.70
2016,06,03,07,34,13.70
2016,06,03,07,35,13.70
2016,06,03,07,36,13.70
2016,06,03,07,37,13.70
2016,06,03,07,38,13.70
2016,06,03,07,39,13.70
2016,06,03,07,40,13.70
2016,06,03,07,41,13.70
2016,06,03,07,42,13.70
2016,06,03,07,43,13.70
2016,06,03,07,44,13.70
2016,06,03,07,45,13.70
2016,06,03,07,46,13.70
2016,06,03,07,47,13.70
2016,06,03,07,48,13.70
2016,06,03,07,49,13.80
2016,06,03,07,50,13.80
2016,06,03,07,51,13.80
2016,06,03,07,52,13.80
2016,06,03,07,53,13.80
2016,06,03,07,54,13.80
2016,06,03,07,55,13.80
2016,06,03,07,56,13.80
2016,06,03,07,57,13.80
2016,06,03,07,58,13.90
2016,06,03,07,59,13.90
2016,06,03,08,00,13.90
2016,06,03,08,01,13.90
2016,06,03,08,02,14.00
2016,06,03,08,03,14.00
2016,06,03,08,04,14.00
2016,06,03,08,05,14.10
2016,06,03,08,06,14.10
2016,06,03,08,07,14.10
2016,06,03,08,08,14.10
2016,06,03,08,09,14.10
2016,06,03,08,10,14.10
2016,06,03,08,11,14.10
2016,06,03,08,12,14.10
2016,06,03,08,13,14.10
2016,06,03,08,14,14.10
2016,06,03,08,15,14.10
2016,06,03,08,16,14.00
2016,06,03,08,17,14.00
2016,06,03,08,18,14.00
2016,06,03,08,19,14.00
2016,06,03,08,20,14.00
2016,06,03,08,21,14.00
2016,06,03,08,22,13.90
2016,06,03,08,23,13.90
2016,06,03,08,24,13.90
2016,06,03,08,25,13.80
2016,06,03,08,26,13.80
2016,06,03,08,27,13.80
2016,06,03,08,28,13.80
2016,06,03,08,29,13.80
2016,06,03,08,30,13.80
2016,06,03,08,31,13.80
2016,06,03,08,32,13.80
2016,06,03,08,33,13.90
2016,06,03,08,34,13.90
2016,06,03,08,35,13.90
2016,06,03,08,36,13.90
2016,06,03,08,37,13.90
2016,06,03,08,38,13.90
2016,06,03,08,39,13.90
2016,06,03,08,40,13.90
2016,06,03,08,41,14.00
2016,06,03,08,42,14.00
2016,06,03,08,43,14.00
2016,06,03,08,44,14.00
2016,06,03,08,45,14.10
2016,06,03,08,46,14.10
2016,06,03,08,47,14.10
2016,06,03,08,48,14.10
2016,06,03,08,49,14.10
2016,06,03,08,50,14.10
2016,06,03,08,51,14.10
2016,06,03,08,52,14.20
2016,06,03,08,53,14.20
2016,06,03,08,54,14.20
2016,06,03,08,55,14.20
2016,06,03,08,56,14.20
2016,06,03,08,57,14.20
2016,06,03,08,58,14.20
2016,06,03,08,59,14.20
2016,06,03,09,00,14.20
2016,06,03,09,01,14.20
2016,06,03,09,02,14.20
2016,06,03,09,03,14.20
2016,06,03,09,04,14.20
2016,06,03,09,05,14.20
2016,06,03,09,06,14.30
2016,06,03,09,07,14.30
2016,06,03,09,08,14.30
2016,06,03,09,09,14.30
2016,06,03,09,10,14.30
2016,06,03,09,11,14.30
2016,06,03,09,12,14.30
2016,06,03,09,13,14.40
2016,06,03,09,14,14.40
2016,06,03,09,15,14.40
2016,06,03,09,16,14.50
2016,06,03,09,17,14.50
2016,06,03,09,18,14.50
2016,06,03,09,19,14.60
2016,06,03,09,20,14.60
2016,06,03,09,21,14.70
2016,06,03,09,22,14.70
2016,06,03,09,23,14.70
2016,06,03,09,24,14.70
2016,06,03,09,25,14.70
2016,06,03,09,26,14.70
2016,06,03,09,27,14.70
2016,06,03,09,28,14.70
2016,06,03,09,29,14.70
2016,06,03,09,30,14.70
2016,06,03,09,31,14.70
2016,06,03,09,32,14.60
2016,06,03,09,33,14.60
2016,06,03,09,34,14.60
2016,06,03,09,35,14.60
2016,06,03,09,36,14.50
2016,06,03,09,37,14.50
2016,06,03,09,38,14.50
2016,06,03,09,39,14.50
2016,06,03,09,40,14.50
2016,06,03,09,41,14.40
2016,06,03,09,42,14.40
2016,06,03,09,43,14.40
2016,06,03,09,44,14.40
2016,06,03,09,45,14.40
2016,06,03,09,46,14.30
2016,06,03,09,47,14.30
2016,06,03,09,48,14.30
2016,06,03,09,49,14.30
2016,06,03,09,50,14.30
2016,06,03,09,51,14.30
2016,06,03,09,52,14.30
2016,06,03,09,53,14.30
2016,06,03,09,54,14.30
2016,06,03,09,55,14.30
2016,06,03,09,56,14.30
2016,06,03,09,57,14.30
2016,06,03,09,58,14.40
2016,06,03,09,59,14.40
2016,06,03,10,00,14.40
2016,06,03,10,01,14.40
2016,06,03,10,02,14.50
2016,06,03,10,03,14.50
2016,06,03,10,04,14.60
2016,06,03,10,05,14.60
2016,06,03,10,06,14.60
2016,06,03,10,07,14.70
2016,06,03,10,08,14.70
2016,06,03,10,09,14.70
2016,06,03,10,10,14.70
2016,06,03,10,11,14.70
2016,06,03,10,12,14.70
2016,06,03,10,13,14.70
2016,06,03,10,14,14.80
2016,06,03,10,15,14.80
2016,06,03,10,16,14.80
2016,06,03,10,17,14.90
2016,06,03,10,18,14.90
2016,06,03,10,19,15.00
2016,06,03,10,20,15.00
2016,06,03,10,21,15.10
2016,06,03,10,22,15.20
2016,06,03,10,23,15.20
2016,06,03,10,24,15.30
2016,06,03,10,25,15.30
2016,06,03,10,26,15.30
2016,06,03,10,27,15.40
2016,06,03,10,28,15.40
2016,06,03,10,29,15.40
2016,06,03,10,30,15.40
2016,06,03,10,31,15.50
2016,06,03,10,32,15.50
2016,06,03,10,33,15.50
2016,06,03,10,34,15.60
2016,06,03,10,35,15.60
2016,06,03,10,36,15.60
2016,06,03,10,37,15.60
2016,06,03,10,38,15.70
2016,06,03,10,39,15.70
2016,06,03,10,40,15.70
2016,06,03,10,41,15.80
2016,06,03,10,42,15.80
2016,06,03,10,43,15.80
2016,06,03,10,44,15.90
2016,06,03,10,45,15.90
2016,06,03,10,46,15.90
2016,06,03,10,47,16.00
2016,06,03,10,48,16.00
2016,06,03,10,49,16.10
2016,06,03,10,50,16.10
2016,06,03,10,51,16.20
2016,06,03,10,52,16.20
2016,06,03,10,53,16.30
2016,06,03,10,54,16.30
2016,06,03,10,55,16.40
2016,06,03,10,56,16.40
2016,06,03,10,57,16.50
2016,06,03,10,58,16.50
2016,06,03,10,59,16.60
2016,06,03,11,00,16.70
2016,06,03,11,01,16.70
2016,06,03,11,02,16.80
2016,06,03,11,03,16.90
2016,06,03,11,04,16.90
2016,06,03,11,05,17.00
2016,06,03,11,06,17.10
2016,06,03,11,07,17.20
2016,06,03,11,08,17.30
2016,06,03,11,09,17.40
2016,06,03,11,10,17.50
2016,06,03,11,11,17.60
2016,06,03,11,12,17.70
2016,06,03,11,13,17.70
2016,06,03,11,14,17.80
2016,06,03,11,15,17.80
2016,06,03,11,16,17.90
2016,06,03,11,17,17.90
2016,06,03,11,18,17.90
2016,06,03,11,19,17.90
2016,06,03,11,20,18.00
2016,06,03,11,21,18.00
2016,06,03,11,22,18.00
2016,06,03,11,23,18.00
2016,06,03,11,24,18.00
2016,06,03,11,25,18.10
2016,06,03,11,26,18.10
2016,06,03,11,27,18.10
2016,06,03,11,28,18.20
2016,06,03,11,29,18.20
2016,06,03,11,30,18.20
2016,06,03,11,31,18.20
2016,06,03,11,32,18.20
2016,06,03,11,33,18.20
2016,06,03,11,34,18.30
2016,06,03,11,35,18.30
2016,06,03,11,36,18.30
2016,06,03,11,37,18.30
2016,06,03,11,38,18.30
2016,06,03,11,39,18.30
2016,06,03,11,40,18.30
2016,06,03,11,41,18.30
2016,06,03,11,42,18.30
2016,06,03,11,43,18.30
2016,06,03,11,44,18.30
2016,06,03,11,45,18.30
2016,06,03,11,46,18.30
2016,06,03,11,47,18.30
2016,06,03,11,48,18.40
2016,06,03,11,49,18.40
2016,06,03,11,50,18.40
2016,06,03,11,51,18.50
2016,06,03,11,52,18.60
2016,06,03,11,53,18.70
2016,06,03,11,54,18.80
2016,06,03,11,55,18.80
2016,06,03,11,56,18.90
2016,06,03,11,57,19.00
2016,06,03,11,58,19.00
2016,06,03,11,59,19.00
2016,06,03,12,00,19.00
2016,06,03,12,01,19.00
2016,06,03,12,02,19.00
2016,06,03,12,03,19.00
2016,06,03,12,04,19.00
2016,06,03,12,05,19.00
2016,06,03,12,06,19.00
2016,06,03,12,07,19.10
2016,06,03,12,08,19.10
2016,06,03,12,09,19.00
2016,06,03,12,10,19.00
2016,06,03,12,11,19.00
2016,06,03,12,12,19.10
2016,06,03,12,13,19.10
2016,06,03,12,14,19.10
2016,06,03,12,15,19.10
2016,06,03,12,16,19.10
2016,06,03,12,17,19.10
2016,06,03,12,18,19.10
2016,06,03,12,19,19.10
2016,06,03,12,20,19.10
2016,06,03,12,21,19.10
2016,06,03,12,22,19.10
2016,06,03,12,23,19.00
2016,06,03,12,24,19.00
2016,06,03,12,25,19.00
2016,06,03,12,26,18.90
2016,06,03,12,27,18.90
2016,06,03,12,28,18.90
2016,06,03,12,29,18.80
2016,06,03,12,30,18.80
2016,06,03,12,31,18.70
2016,06,03,12,32,18.70
2016,06,03,12,33,18.80
2016,06,03,12,34,18.80
2016,06,03,12,35,18.90
2016,06,03,12,36,19.00
2016,06,03,12,37,19.10
2016,06,03,12,38,19.20
2016,06,03,12,39,19.20
2016,06,03,12,40,19.30
2016,06,03,12,41,19.30
2016,06,03,12,42,19.30
2016,06,03,12,43,19.30
2016,06,03,12,44,19.20
2016,06,03,12,45,19.20
2016,06,03,12,46,19.30
2016,06,03,12,47,19.30
2016,06,03,12,48,19.40
2016,06,03,12,49,19.50
2016,06,03,12,50,19.50
2016,06,03,12,51,19.60
2016,06,03,12,52,19.60
2016,06,03,12,53,19.60
2016,06,03,12,54,19.60
2016,06,03,12,55,19.60
2016,06,03,12,56,19.60
2016,06,03,12,57,19.60
2016,06,03,12,58,19.60
2016,06,03,12,59,19.60
2016,06,03,13,00,19.60
2016,06,03,13,01,19.60
2016,06,03,13,02,19.60
2016,06,03,13,03,19.60
2016,06,03,13,04,19.60
2016,06,03,13,05,19.50
2016,06,03,13,06,19.50
2016,06,03,13,07,19.60
2016,06,03,13,08,19.60
2016,06,03,13,09,19.50
2016,06,03,13,10,19.50
2016,06,03,13,11,19.40
2016,06,03,13,12,19.40
2016,06,03,13,13,19.30
2016,06,03,13,14,19.30
2016,06,03,13,15,19.30
2016,06,03,13,16,19.30
2016,06,03,13,17,19.20
2016,06,03,13,18,19.20
2016,06,03,13,19,19.10
2016,06,03,13,20,19.00
2016,06,03,13,21,18.90
2016,06,03,13,22,18.90
2016,06,03,13,23,18.80
2016,06,03,13,24,18.80
2016,06,03,13,25,18.90
2016,06,03,13,26,18.90
2016,06,03,13,27,18.90
2016,06,03,13,28,19.00
2016,06,03,13,29,19.10
2016,06,03,13,30,19.20
2016,06,03,13,31,19.30
2016,06,03,13,32,19.30
2016,06,03,13,33,19.40
2016,06,03,13,34,19.50
2016,06,03,13,35,19.50
2016,06,03,13,36,19.60
2016,06,03,13,37,19.60
2016,06,03,13,38,19.60
2016,06,03,13,39,19.60
2016,06,03,13,40,19.70
2016,06,03,13,41,19.70
2016,06,03,13,42,19.70
2016,06,03,13,43,19.80
2016,06,03,13,44,19.90
2016,06,03,13,45,19.90
2016,06,03,13,46,20.00
2016,06,03,13,47,20.00
2016,06,03,13,48,20.00
2016,06,03,13,49,20.00
2016,06,03,13,50,20.00
2016,06,03,13,51,20.00
2016,06,03,13,52,20.10
2016,06,03,13,53,20.10
2016,06,03,13,54,20.10
2016,06,03,13,55,20.10
2016,06,03,13,56,20.10
2016,06,03,13,57,20.20
2016,06,03,13,58,20.10
2016,06,03,13,59,20.10
2016,06,03,14,00,20.10
2016,06,03,14,01,20.10
2016,06,03,14,02,20.20
2016,06,03,14,03,20.20
2016,06,03,14,04,20.20
2016,06,03,14,05,20.30
2016,06,03,14,06,20.30
2016,06,03,14,07,20.30
2016,06,03,14,08,20.20
2016,06,03,14,09,20.20
2016,06,03,14,10,20.20
2016,06,03,14,11,20.30
2016,06,03,14,12,20.30
2016,06,03,14,13,20.30
2016,06,03,14,14,20.30
2016,06,03,14,15,20.30
2016,06,03,14,16,20.30
2016,06,03,14,17,20.40
2016,06,03,14,18,20.40
2016,06,03,14,19,20.40
2016,06,03,14,20,20.50
2016,06,03,14,21,20.50
2016,06,03,14,22,20.50
2016,06,03,14,23,20.60
2016,06,03,14,24,20.60
2016,06,03,14,25,20.50
2016,06,03,14,26,20.50
2016,06,03,14,27,20.50
2016,06,03,14,28,20.50
2016,06,03,14,29,20.50
2016,06,03,14,30,20.60
2016,06,03,14,31,20.60
2016,06,03,14,32,20.60
2016,06,03,14,33,20.60
2016,06,03,14,34,20.60
2016,06,03,14,35,20.60
2016,06,03,14,36,20.60
2016,06,03,14,37,20.60
2016,06,03,14,38,20.60
2016,06,03,14,39,20.60
2016,06,03,14,40,20.60
2016,06,03,14,41,20.60
2016,06,03,14,42,20.70
2016,06,03,14,43,20.70
2016,06,03,14,44,20.70
2016,06,03,14,45,20.70
2016,06,03,14,46,20.70
2016,06,03,14,47,20.80
2016,06,03,14,48,20.80
2016,06,03,14,49,20.80
2016,06,03,14,50,20.80
2016,06,03,14,51,20.80
2016,06,03,14,52,20.80
2016,06,03,14,53,20.90
2016,06,03,14,54,20.90
2016,06,03,14,55,21.00
2016,06,03,14,56,21.00
2016,06,03,14,57,21.10
2016,06,03,14,58,21.10
2016,06,03,14,59,21.00
2016,06,03,15,00,21.00
2016,06,03,15,01,20.90
2016,06,03,15,02,20.90
2016,06,03,15,03,20.90
2016,06,03,15,04,20.90
2016,06,03,15,05,20.90
2016,06,03,15,06,21.00
2016,06,03,15,07,21.00
2016,06,03,15,08,21.10
2016,06,03,15,09,21.10
2016,06,03,15,10,21.20
2016,06,03,15,11,21.30
2016,06,03,15,12,21.40
2016,06,03,15,13,21.40
2016,06,03,15,14,21.50
2016,06,03,15,15,21.60
2016,06,03,15,16,21.70
2016,06,03,15,17,21.80
2016,06,03,15,18,21.90
2016,06,03,15,19,21.90
2016,06,03,15,20,21.90
2016,06,03,15,21,21.90
2016,06,03,15,22,21.90
2016,06,03,15,23,22.00
2016,06,03,15,24,22.00
2016,06,03,15,25,22.10
2016,06,03,15,26,22.10
2016,06,03,15,27,22.00
2016,06,03,15,28,21.90
2016,06,03,15,29,21.80
2016,06,03,15,30,21.80
2016,06,03,15,31,21.80
2016,06,03,15,32,21.70
2016,06,03,15,33,21.70
2016,06,03,15,34,21.70
2016,06,03,15,35,21.60
2016,06,03,15,36,21.60
2016,06,03,15,37,21.60
2016,06,03,15,38,21.60
2016,06,03,15,39,21.60
2016,06,03,15,40,21.60
2016,06,03,15,41,21.60
2016,06,03,15,42,21.70
2016,06,03,15,43,21.80
2016,06,03,15,44,21.80
2016,06,03,15,45,21.90
2016,06,03,15,46,21.90
2016,06,03,15,47,21.90
2016,06,03,15,48,21.90
2016,06,03,15,49,21.80
2016,06,03,15,50,21.80
2016,06,03,15,51,21.70
2016,06,03,15,52,21.70
2016,06,03,15,53,21.70
2016,06,03,15,54,21.70
2016,06,03,15,55,21.80
2016,06,03,15,56,21.80
2016,06,03,15,57,21.80
2016,06,03,15,58,21.80
2016,06,03,15,59,21.80
2016,06,03,16,00,21.90
2016,06,03,16,01,21.90
2016,06,03,16,02,22.00
2016,06,03,16,03,22.00
2016,06,03,16,04,22.00
2016,06,03,16,05,22.00
2016,06,03,16,06,22.00
2016,06,03,16,07,22.00
2016,06,03,16,08,22.00
2016,06,03,16,09,22.00
2016,06,03,16,10,22.00
2016,06,03,16,11,21.90
2016,06,03,16,12,21.80
2016,06,03,16,13,21.70
2016,06,03,16,14,21.60
2016,06,03,16,15,21.60
2016,06,03,16,16,21.60
2016,06,03,16,17,21.60
2016,06,03,16,18,21.60
2016,06,03,16,19,21.60
2016,06,03,16,20,21.70
2016,06,03,16,21,21.70
2016,06,03,16,22,21.70
2016,06,03,16,23,21.80
2016,06,03,16,24,21.80
2016,06,03,16,25,21.80
2016,06,03,16,26,21.80
2016,06,03,16,27,21.80
2016,06,03,16,28,21.80
2016,06,03,16,29,21.90
2016,06,03,16,30,21.90
2016,06,03,16,31,21.90
2016,06,03,16,32,22.00
2016,06,03,16,33,22.00
2016,06,03,16,34,22.00
2016,06,03,16,35,22.00
2016,06,03,16,36,22.00
2016,06,03,16,37,22.00
2016,06,03,16,38,22.10
2016,06,03,16,39,22.10
2016,06,03,16,40,22.20
2016,06,03,16,41,22.30
2016,06,03,16,42,22.40
2016,06,03,16,43,22.40
2016,06,03,16,44,22.40
2016,06,03,16,45,22.50
2016,06,03,16,46,22.60
2016,06,03,16,47,22.60
2016,06,03,16,48,22.70
2016,06,03,16,49,22.70
2016,06,03,16,50,22.70
2016,06,03,16,51,22.80
2016,06,03,16,52,22.80
2016,06,03,16,53,22.80
2016,06,03,16,54,22.70
2016,06,03,16,55,22.70
2016,06,03,16,56,22.70
2016,06,03,16,57,22.70
2016,06,03,16,58,22.70
2016,06,03,16,59,22.70
2016,06,03,17,00,22.70
2016,06,03,17,01,22.70
2016,06,03,17,02,22.70
2016,06,03,17,03,22.80
2016,06,03,17,04,22.80
2016,06,03,17,05,22.80
2016,06,03,17,06,22.80
2016,06,03,17,07,22.80
2016,06,03,17,08,22.80
2016,06,03,17,09,22.80
2016,06,03,17,10,22.90
2016,06,03,17,11,22.90
2016,06,03,17,12,22.90
2016,06,03,17,13,22.90
2016,06,03,17,14,22.80
2016,06,03,17,15,22.80
2016,06,03,17,16,22.80
2016,06,03,17,17,22.80
2016,06,03,17,18,22.80
2016,06,03,17,19,22.80